Time,TemperatureF,DewpointF,PressureIn,WindDirection,WindDirectionDegrees,WindSpeedMPH,WindSpeedGustMPH,Humidity,HourlyPrecipIn,Conditions,Clouds,dailyrainin,SolarRadiationWatts/m^2,SoftwareType,DateUTC
2013-01-07 00:03:00,35.0,23.0,-100.00,NNW,333,6.0,19.0,62,0.00,,,0.01,0.000000,,2013-01-07 05:03:00,
2013-01-07 00:22:00,35.0,24.0,-100.00,NNW,341,7.0,24.0,63,0.00,,,0.01,0.000000,,2013-01-07 05:22:00,
2013-01-07 00:33:00,35.0,24.0,-100.00,NNW,341,7.0,24.0,63,0.00,,,0.01,0.000000,,2013-01-07 05:33:00,
2013-01-07 00:43:00,35.0,24.0,-100.00,NNW,341,7.0,24.0,63,0.00,,,0.01,0.000000,,2013-01-07 05:43:00,
2013-01-07 00:53:00,35.0,24.0,-100.00,NNW,341,7.0,24.0,63,0.00,,,0.01,0.000000,,2013-01-07 05:53:00,
2013-01-07 01:02:00,35.0,24.0,-100.00,NNW,341,7.0,24.0,63,0.00,,,0.01,0.000000,,2013-01-07 06:02:00,
2013-01-07 01:32:00,33.0,24.0,-100.00,North,359,5.0,22.0,70,0.00,,,0.01,0.000000,,2013-01-07 06:32:00,
2013-01-07 01:42:00,33.0,24.0,-100.00,North,359,5.0,22.0,70,0.00,,,0.01,0.000000,,2013-01-07 06:42:00,
2013-01-07 01:52:00,33.0,24.0,-100.00,North,359,5.0,22.0,70,0.00,,,0.01,0.000000,,2013-01-07 06:52:00,
2013-01-07 02:02:00,33.0,24.0,-100.00,North,359,5.0,22.0,70,0.00,,,0.01,0.000000,,2013-01-07 07:02:00,
2013-01-07 02:33:00,32.0,24.0,-100.00,North,6,5.0,17.0,72,0.00,,,0.01,0.000000,,2013-01-07 07:33:00,
2013-01-07 02:43:00,32.0,24.0,-100.00,North,6,5.0,17.0,72,0.00,,,0.01,0.000000,,2013-01-07 07:43:00,
2013-01-07 02:53:00,32.0,24.0,-100.00,North,6,5.0,17.0,72,0.00,,,0.01,0.000000,,2013-01-07 07:53:00,
2013-01-07 03:03:00,32.0,24.0,-100.00,North,6,5.0,17.0,72,0.00,,,0.01,0.000000,,2013-01-07 08:03:00,
2013-01-07 03:33:00,31.0,23.0,-100.00,NNW,348,6.0,18.0,73,0.00,,,0.01,0.000000,,2013-01-07 08:33:00,
2013-01-07 03:43:00,31.0,23.0,-100.00,NNW,348,6.0,18.0,73,0.00,,,0.01,0.000000,,2013-01-07 08:43:00,
2013-01-07 03:53:00,31.0,23.0,-100.00,NNW,348,6.0,18.0,73,0.00,,,0.01,0.000000,,2013-01-07 08:53:00,
2013-01-07 04:02:00,31.0,23.0,-100.00,NNW,348,6.0,18.0,73,0.00,,,0.01,0.000000,,2013-01-07 09:02:00,
2013-01-07 04:32:00,30.0,23.0,-100.00,NNE,20,4.0,9.0,76,0.00,,,0.01,0.000000,,2013-01-07 09:32:00,
2013-01-07 04:42:00,30.0,23.0,-100.00,NNE,20,4.0,9.0,76,0.00,,,0.01,0.000000,,2013-01-07 09:42:00,
2013-01-07 04:53:00,30.0,23.0,-100.00,NNE,20,4.0,9.0,76,0.00,,,0.01,0.000000,,2013-01-07 09:53:00,
2013-01-07 05:02:00,30.0,23.0,-100.00,NNE,20,4.0,9.0,76,0.00,,,0.01,0.000000,,2013-01-07 10:02:00,
2013-01-07 05:33:00,29.0,23.0,-100.00,NNW,340,5.0,11.0,79,0.00,,,0.01,0.000000,,2013-01-07 10:33:00,
2013-01-07 05:43:00,29.0,23.0,-100.00,NNW,340,5.0,11.0,79,0.00,,,0.01,0.000000,,2013-01-07 10:43:00,
2013-01-07 05:52:00,29.0,23.0,-100.00,NNW,340,5.0,11.0,79,0.00,,,0.01,0.000000,,2013-01-07 10:52:00,
2013-01-07 06:02:00,29.0,23.0,-100.00,NNW,340,5.0,11.0,79,0.00,,,0.01,0.000000,,2013-01-07 11:02:00,
2013-01-07 06:33:00,33.0,20.0,-100.00,ENE,76,9.0,18.0,59,0.00,,,0.01,0.000000,,2013-01-07 11:33:00,
2013-01-07 06:43:00,33.0,20.0,-100.00,ENE,76,9.0,18.0,59,0.00,,,0.01,0.000000,,2013-01-07 11:43:00,
2013-01-07 06:53:00,33.0,20.0,-100.00,ENE,76,9.0,18.0,59,0.00,,,0.01,0.000000,,2013-01-07 11:53:00,
2013-01-07 07:03:00,33.0,20.0,-100.00,ENE,76,9.0,18.0,59,0.00,,,0.01,0.000000,,2013-01-07 12:03:00,
2013-01-07 07:33:00,31.0,16.0,-100.00,SSW,197,3.0,17.0,53,0.00,,,0.01,0.000000,,2013-01-07 12:33:00,
2013-01-07 07:43:00,31.0,16.0,-100.00,SSW,197,3.0,17.0,53,0.00,,,0.01,0.000000,,2013-01-07 12:43:00,
2013-01-07 07:53:00,31.0,16.0,-100.00,SSW,197,3.0,17.0,53,0.00,,,0.01,0.000000,,2013-01-07 12:53:00,
2013-01-07 08:03:00,31.0,16.0,-100.00,SSW,197,3.0,17.0,53,0.00,,,0.01,0.000000,,2013-01-07 13:03:00,
2013-01-07 08:23:00,26.0,18.0,-100.00,WSW,249,2.0,6.0,71,0.00,,,0.01,4.000000,,2013-01-07 13:23:00,
2013-01-07 08:33:00,26.0,18.0,-100.00,WSW,249,2.0,6.0,71,0.00,,,0.01,4.000000,,2013-01-07 13:33:00,
2013-01-07 08:43:00,26.0,18.0,-100.00,WSW,249,2.0,6.0,71,0.00,,,0.01,4.000000,,2013-01-07 13:43:00,
2013-01-07 08:53:00,26.0,18.0,-100.00,WSW,249,2.0,6.0,71,0.00,,,0.01,4.000000,,2013-01-07 13:53:00,
2013-01-07 09:03:00,26.0,18.0,-100.00,WSW,249,2.0,6.0,71,0.00,,,0.01,4.000000,,2013-01-07 14:03:00,
2013-01-07 09:33:00,33.0,20.0,-100.00,East,86,3.0,6.0,59,0.00,,,0.01,39.000000,,2013-01-07 14:33:00,
2013-01-07 09:43:00,33.0,20.0,-100.00,East,86,3.0,6.0,59,0.00,,,0.01,39.000000,,2013-01-07 14:43:00,
2013-01-07 09:53:00,33.0,20.0,-100.00,East,86,3.0,6.0,59,0.00,,,0.01,39.000000,,2013-01-07 14:53:00,
2013-01-07 10:03:00,33.0,20.0,-100.00,East,86,3.0,6.0,59,0.00,,,0.01,39.000000,,2013-01-07 15:03:00,
2013-01-07 10:23:00,38.0,22.0,-100.00,SW,236,4.0,9.0,51,0.00,,,0.01,201.000000,,2013-01-07 15:23:00,
2013-01-07 10:33:00,38.0,22.0,-100.00,SW,236,4.0,9.0,51,0.00,,,0.01,201.000000,,2013-01-07 15:33:00,
2013-01-07 10:43:00,38.0,22.0,-100.00,SW,236,4.0,9.0,51,0.00,,,0.01,201.000000,,2013-01-07 15:43:00,
2013-01-07 10:53:00,38.0,22.0,-100.00,SW,236,4.0,9.0,51,0.00,,,0.01,201.000000,,2013-01-07 15:53:00,
2013-01-07 11:03:00,38.0,22.0,-100.00,SW,236,4.0,9.0,51,0.00,,,0.01,201.000000,,2013-01-07 16:03:00,
2013-01-07 11:33:00,42.0,25.0,-100.00,WSW,246,6.0,10.0,50,0.00,,,0.01,304.000000,,2013-01-07 16:33:00,
2013-01-07 11:43:00,42.0,25.0,-100.00,WSW,246,6.0,10.0,50,0.00,,,0.01,304.000000,,2013-01-07 16:43:00,
2013-01-07 11:53:00,42.0,25.0,-100.00,WSW,246,6.0,10.0,50,0.00,,,0.01,304.000000,,2013-01-07 16:53:00,
2013-01-07 12:03:00,42.0,25.0,-100.00,WSW,246,6.0,10.0,50,0.00,,,0.01,304.000000,,2013-01-07 17:03:00,
2013-01-07 12:23:00,45.0,24.0,-100.00,WSW,256,7.0,11.0,44,0.00,,,0.01,522.000000,,2013-01-07 17:23:00,
2013-01-07 12:33:00,45.0,24.0,-100.00,WSW,256,7.0,11.0,44,0.00,,,0.01,522.000000,,2013-01-07 17:33:00,
2013-01-07 12:43:00,45.0,24.0,-100.00,WSW,256,7.0,11.0,44,0.00,,,0.01,522.000000,,2013-01-07 17:43:00,
2013-01-07 12:53:00,45.0,24.0,-100.00,WSW,256,7.0,11.0,44,0.00,,,0.01,522.000000,,2013-01-07 17:53:00,
2013-01-07 13:03:00,45.0,24.0,-100.00,WSW,256,7.0,11.0,44,0.00,,,0.01,522.000000,,2013-01-07 18:03:00,
2013-01-07 13:33:00,49.0,23.0,-100.00,SSW,208,5.0,9.0,36,0.00,,,0.01,598.000000,,2013-01-07 18:33:00,
2013-01-07 13:43:00,49.0,23.0,-100.00,SSW,208,5.0,9.0,36,0.00,,,0.01,598.000000,,2013-01-07 18:43:00,
2013-01-07 13:53:00,49.0,23.0,-100.00,SSW,208,5.0,9.0,36,0.00,,,0.01,598.000000,,2013-01-07 18:53:00,
2013-01-07 14:03:00,49.0,23.0,-100.00,SSW,208,5.0,9.0,36,0.00,,,0.01,598.000000,,2013-01-07 19:03:00,
2013-01-07 14:33:00,52.0,16.0,-100.00,South,172,3.0,7.0,24,0.00,,,0.01,568.000000,,2013-01-07 19:33:00,
2013-01-07 14:43:00,52.0,16.0,-100.00,South,172,3.0,7.0,24,0.00,,,0.01,568.000000,,2013-01-07 19:43:00,
2013-01-07 14:53:00,52.0,16.0,-100.00,South,172,3.0,7.0,24,0.00,,,0.01,568.000000,,2013-01-07 19:53:00,
2013-01-07 15:03:00,52.0,16.0,-100.00,South,172,3.0,7.0,24,0.00,,,0.01,568.000000,,2013-01-07 20:03:00,
2013-01-07 15:33:00,50.0,17.0,-100.00,South,188,4.0,8.0,27,0.00,,,0.01,432.000000,,2013-01-07 20:33:00,
2013-01-07 15:43:00,50.0,17.0,-100.00,South,188,4.0,8.0,27,0.00,,,0.01,432.000000,,2013-01-07 20:43:00,
2013-01-07 15:53:00,50.0,17.0,-100.00,South,188,4.0,8.0,27,0.00,,,0.01,432.000000,,2013-01-07 20:53:00,
2013-01-07 16:03:00,50.0,17.0,-100.00,South,188,4.0,8.0,27,0.00,,,0.01,432.000000,,2013-01-07 21:03:00,
2013-01-07 16:33:00,50.0,20.0,-100.00,SSW,192,3.0,9.0,30,0.00,,,0.01,333.000000,,2013-01-07 21:33:00,
2013-01-07 16:43:00,50.0,20.0,-100.00,SSW,192,3.0,9.0,30,0.00,,,0.01,333.000000,,2013-01-07 21:43:00,
2013-01-07 16:53:00,50.0,20.0,-100.00,SSW,192,3.0,9.0,30,0.00,,,0.01,333.000000,,2013-01-07 21:53:00,
2013-01-07 17:03:00,50.0,20.0,-100.00,SSW,192,3.0,9.0,30,0.00,,,0.01,333.000000,,2013-01-07 22:03:00,
2013-01-07 17:23:00,45.0,20.0,-100.00,SW,221,2.0,8.0,36,0.00,,,0.01,135.000000,,2013-01-07 22:23:00,
2013-01-07 17:33:00,45.0,20.0,-100.00,SW,221,2.0,8.0,36,0.00,,,0.01,135.000000,,2013-01-07 22:33:00,
2013-01-07 17:43:00,45.0,20.0,-100.00,SW,221,2.0,8.0,36,0.00,,,0.01,135.000000,,2013-01-07 22:43:00,
2013-01-07 17:53:00,45.0,20.0,-100.00,SW,221,2.0,8.0,36,0.00,,,0.01,135.000000,,2013-01-07 22:53:00,
2013-01-07 18:02:00,45.0,20.0,-100.00,SW,221,2.0,8.0,36,0.00,,,0.01,135.000000,,2013-01-07 23:02:00,
2013-01-07 18:33:00,35.0,23.0,-100.00,West,263,0.0,6.0,60,0.00,,,0.00,6.000000,,2013-01-07 23:33:00,
2013-01-07 18:43:00,35.0,23.0,-100.00,West,263,0.0,6.0,60,0.00,,,0.00,6.000000,,2013-01-07 23:43:00,
2013-01-07 18:53:00,35.0,23.0,-100.00,West,263,0.0,6.0,60,0.00,,,0.00,6.000000,,2013-01-07 23:53:00,
2013-01-07 19:03:00,35.0,23.0,-100.00,West,263,0.0,6.0,60,0.00,,,0.00,6.000000,,2013-01-08 00:03:00,
2013-01-07 19:23:00,29.0,22.0,-100.00,ENE,58,1.0,2.0,75,0.00,,,0.00,0.000000,,2013-01-08 00:23:00,
2013-01-07 19:33:00,29.0,22.0,-100.00,ENE,58,1.0,2.0,75,0.00,,,0.00,0.000000,,2013-01-08 00:33:00,
2013-01-07 19:43:00,29.0,22.0,-100.00,ENE,58,1.0,2.0,75,0.00,,,0.00,0.000000,,2013-01-08 00:43:00,
2013-01-07 19:53:00,29.0,22.0,-100.00,ENE,58,1.0,2.0,75,0.00,,,0.00,0.000000,,2013-01-08 00:53:00,
2013-01-07 20:03:00,29.0,22.0,-100.00,ENE,58,1.0,2.0,75,0.00,,,0.00,0.000000,,2013-01-08 01:03:00,
2013-01-07 20:22:00,27.0,21.0,-100.00,ENE,73,2.0,3.0,79,0.00,,,0.00,0.000000,,2013-01-08 01:22:00,
2013-01-07 20:33:00,27.0,21.0,-100.00,ENE,73,2.0,3.0,79,0.00,,,0.00,0.000000,,2013-01-08 01:33:00,
2013-01-07 20:42:00,27.0,21.0,-100.00,ENE,73,2.0,3.0,79,0.00,,,0.00,0.000000,,2013-01-08 01:42:00,
2013-01-07 20:53:00,27.0,21.0,-100.00,ENE,73,2.0,3.0,79,0.00,,,0.00,0.000000,,2013-01-08 01:53:00,
2013-01-07 21:02:00,27.0,21.0,-100.00,ENE,73,2.0,3.0,79,0.00,,,0.00,0.000000,,2013-01-08 02:02:00,
2013-01-07 21:33:00,27.0,22.0,-100.00,West,265,2.0,3.0,82,0.00,,,0.00,0.000000,,2013-01-08 02:33:00,
2013-01-07 21:43:00,27.0,22.0,-100.00,West,265,2.0,3.0,82,0.00,,,0.00,0.000000,,2013-01-08 02:43:00,
2013-01-07 21:53:00,27.0,22.0,-100.00,West,265,2.0,3.0,82,0.00,,,0.00,0.000000,,2013-01-08 02:53:00,
2013-01-07 22:03:00,27.0,22.0,-100.00,West,265,2.0,3.0,82,0.00,,,0.00,0.000000,,2013-01-08 03:03:00,
2013-01-07 22:33:00,25.0,20.0,-100.00,SE,125,1.0,4.0,82,0.00,,,0.00,0.000000,,2013-01-08 03:33:00,
2013-01-07 22:43:00,25.0,20.0,-100.00,SE,125,1.0,4.0,82,0.00,,,0.00,0.000000,,2013-01-08 03:43:00,
2013-01-07 22:53:00,25.0,20.0,-100.00,SE,125,1.0,4.0,82,0.00,,,0.00,0.000000,,2013-01-08 03:53:00,
2013-01-07 23:02:00,25.0,20.0,-100.00,SE,125,1.0,4.0,82,0.00,,,0.00,0.000000,,2013-01-08 04:02:00,
2013-01-07 23:04:00,24.0,20.0,-100.00,SE,125,0.0,2.0,86,0.00,,,0.00,0.000000,,2013-01-08 04:04:00,
2013-01-07 23:32:00,24.0,20.0,-100.00,SE,125,0.0,2.0,86,0.00,,,0.00,0.000000,,2013-01-08 04:32:00,
2013-01-07 23:43:00,24.0,20.0,-100.00,SE,125,0.0,2.0,86,0.00,,,0.00,0.000000,,2013-01-08 04:43:00,
2013-01-07 23:52:00,24.0,20.0,-100.00,SE,125,0.0,2.0,86,0.00,,,0.00,0.000000,,2013-01-08 04:52:00,